STARLINK-11311, 61253

Orbit data source: Space-Track

STARLINK-11311, 61253 is a payload satellite owned by SpaceX/Seattle (US) in LEO that was launched on Wed, 25 Sep 2024 UTC via an FALCON 9 launch vehicle from the Air Force Western Test Range (AFWTR). Payload-class satellites include a variety of spacecraft equipped with specific instruments for various scientific and technological missions. These include communications satellites like Starlink; space stations such as the ISS; scientific satellites like the Hubble; Earth observation satellites from companies like Planet Labs, Umbra, and HawkEye 360; GPS; miniature CubeSats for education and research; and military/defense satellites.

Loading next visibility...
Identifier
61253, 2024-175L
Orbit
LEO
Country
Flag of USUS
Related business
Manufacturer
SpaceX/Seattle
Mission
Operational Commercial Communications
Bus & Motor
STARLINK V2MD, Unknown motor
Mass
960 kg wet, ~910 kg dry
Launch date (UTC)
2024-09-25 (1 year ago)
Launch vehicle
FALCON 9
Launch site
Air Force Western Test Range (AFWTR)
Object type
Payload
Rocket body
Debris
Shape & HBR
Box + 2 Pan, 14.5 m
Radar Cross Section
36.964 m², Large (>1 m²)

Expand to show TLE details & history
Last TLE update: 7 hours ago

TLE from 7 hours ago
0 STARLINK-11311
1 61253U 24175L   25260.95352394  .00001695  00000-0  18840-4 0  9997
2 61253  53.1578 187.9839 0001236  79.4822 280.6335 15.69720252 57443
Epoch: 2025-09-17T22:53Z
TLE epoch observation values (Epoch: 2025-09-17T22:53:04.468Z)
Latitude
-0.00003°
Longitude
-152.40681°
Altitude
360.459 km
Speed
7.694 km/s
True Right ascension
12h 31m 56s
True Declination
0° 00' 00"
Sunlit
Object was in daylight at epoch
Visualization orbit readout
Latitude
Unknown
Longitude
Unknown
Altitude
Unknown
Speed
Unknown
Apparent Right ascension
Unknown
Apparent Declination
Unknown
Sunlit
N/A
Visualization observer readout
Local Sidereal Time
22:18:18
Azimuth
Unknown
Elevation
Unknown
Doppler factor
Unknown
Orbital elements
Apogee altitude
360.791 km
Perigee altitude
359.126 km
Semi-major axis
6,738.095 km
Eccentricity
0.00012
Inclination
53.1578°
RAAN
187.9839°
Arg. of periapsis
79.4822°
True anomaly
280.61958°
Mean anomaly
280.6335°
Eccentric anomaly
280.62654°
Mean motion
3.92408 °/min
Orbital period
91.74 mins
BSTAR
0.00001884
Loading maneuver chart data...
Computing Atmospheric mass density...
Loading historical data...
Loading historical data...
Loading historical data...
Loading historical data...
Loading historical data...
Loading historical data...
Loading historical data...

Documentation

Showing up to 5 results
|